This is the latest recevied weather packets stored in our database for station/object K7NDG. If no packets are shown the sender has not sent any weather packets the latest 10 day(s).
| Time | Temp. | Humidity | Pressure | Rain* | Wind** | Luminosity | Snow |
|---|---|---|---|---|---|---|---|
| 1777991300 | 12.78° C | 83% | 1016 hPa | 0 mm | - | 27 W/m² | - |
| 1777990998 | 12.78° C | 83% | 1015.7 hPa | 0 mm | - | 26 W/m² | - |
| 1777990695 | 12.78° C | 83% | 1016 hPa | 0 mm | - | 22 W/m² | - |
| 1777989178 | 12.78° C | 83% | 1015.8 hPa | 0 mm | - | 12 W/m² | - |
| 1777988874 | 12.78° C | 83% | 1015.7 hPa | 0 mm | - | 10 W/m² | - |
| 1777988572 | 12.78° C | 83% | 1015.7 hPa | 0 mm | - | 9 W/m² | - |
| 1777988268 | 12.78° C | 83% | 1015.7 hPa | 0 mm | - | 6 W/m² | - |
| 1777987965 | 12.78° C | 83% | 1015.5 hPa | 0 mm | - | 4 W/m² | - |
| 1777987660 | 12.78° C | 83% | 1015.3 hPa | 0 mm | - | 4 W/m² | - |
| 1777987358 | 12.78° C | 83% | 1015.4 hPa | 0 mm | - | 2 W/m² | - |
| 1777987055 | 12.78° C | 83% | 1015.4 hPa | 0 mm | - | 1 W/m² | - |
| 1777986752 | 12.78° C | 83% | 1015.4 hPa | 0 mm | - | 0 W/m² | - |
| 1777984631 | 12.78° C | 83% | 1015 hPa | 0 mm | - | 0 W/m² | - |
| 1777984329 | 12.78° C | 83% | 1015 hPa | 0 mm | - | 0 W/m² | - |
| 1777984025 | 12.78° C | 83% | 1015 hPa | 0 mm | - | 0 W/m² | - |
| 1777983419 | 12.78° C | 83% | 1015.1 hPa | 0 mm | - | 0 W/m² | - |
| 1777980989 | 12.78° C | 83% | 1014.6 hPa | 0 mm | - | 0 W/m² | - |
| 1777980686 | 12.78° C | 82% | 1014.8 hPa | 0 mm | - | 0 W/m² | - |
| 1777980382 | 12.78° C | 82% | 1015 hPa | 0 mm | - | 0 W/m² | - |
| 1777979774 | 12.78° C | 82% | 1014.9 hPa | 0 mm | - | 0 W/m² | - |
| 1777978256 | 12.78° C | 81% | 1014.6 hPa | 0 mm | - | 0 W/m² | - |
| 1777977347 | 12.78° C | 81% | 1014.5 hPa | 0 mm | - | 0 W/m² | - |
| 1777977045 | 12.78° C | 81% | 1014.5 hPa | 0 mm | - | 0 W/m² | - |
| 1777976742 | 12.78° C | 81% | 1014.6 hPa | 0 mm | - | 0 W/m² | - |
| 1777976137 | 12.78° C | 81% | 1014.6 hPa | 0 mm | - | 0 W/m² | - |
* Rain latest hour (hover to see other rain measurements)
** Current wind speed in m/s (hover to see current wind gust speed)